TimeEDT,TemperatureF,Dew PointF,Humidity,Sea Level PressureIn,VisibilityMPH,Wind Direction,Wind SpeedMPH,Gust SpeedMPH,PrecipitationIn,Events,Conditions,WindDirDegrees,DateUTC
12:53 AM,70.0,59.0,68,29.87,10.0,East,8.1,-,N/A,,Overcast,100,2013-06-10 04:53:00
1:53 AM,68.0,60.1,76,29.86,10.0,East,8.1,-,0.01,Rain,Light Rain,100,2013-06-10 05:53:00
2:53 AM,66.0,61.0,84,29.86,6.0,East,5.8,-,0.04,Rain,Light Rain,90,2013-06-10 06:53:00
3:53 AM,66.0,62.1,87,29.83,5.0,East,5.8,-,0.02,,Overcast,90,2013-06-10 07:53:00
4:53 AM,64.9,62.1,90,29.81,5.0,East,5.8,-,0.01,,Overcast,80,2013-06-10 08:53:00
5:17 AM,64.4,62.6,94,29.82,5.0,East,8.1,-,0.00,,Overcast,80,2013-06-10 09:17:00
5:53 AM,64.9,61.0,87,29.80,4.0,East,8.1,-,0.00,,Mostly Cloudy,80,2013-06-10 09:53:00
6:53 AM,64.9,62.1,90,29.80,4.0,East,5.8,-,N/A,,Overcast,80,2013-06-10 10:53:00
7:53 AM,66.0,62.1,87,29.80,5.0,East,8.1,-,N/A,,Overcast,80,2013-06-10 11:53:00
8:53 AM,66.9,63.0,87,29.78,6.0,ENE,9.2,-,N/A,,Overcast,70,2013-06-10 12:53:00
9:53 AM,68.0,62.1,81,29.78,10.0,East,6.9,-,N/A,,Overcast,80,2013-06-10 13:53:00
10:53 AM,70.0,64.0,81,29.78,10.0,East,8.1,-,N/A,,Overcast,90,2013-06-10 14:53:00
11:53 AM,71.1,64.0,78,29.77,10.0,Variable,3.5,-,N/A,,Overcast,0,2013-06-10 15:53:00
12:00 PM,71.6,64.4,78,29.78,10.0,ESE,4.6,-,N/A,,Overcast,110,2013-06-10 16:00:00
12:53 PM,72.0,64.9,78,29.76,10.0,East,5.8,-,N/A,,Overcast,90,2013-06-10 16:53:00
1:34 PM,71.6,64.4,78,29.77,10.0,ENE,8.1,-,N/A,,Overcast,70,2013-06-10 17:34:00
1:47 PM,71.6,64.4,78,29.77,10.0,ENE,6.9,-,N/A,,Overcast,70,2013-06-10 17:47:00
1:48 PM,72.0,64.9,78,29.76,10.0,ENE,6.9,-,N/A,,Overcast,70,2013-06-10 17:48:00
2:01 PM,71.6,64.4,78,29.77,10.0,NE,6.9,-,N/A,,Overcast,50,2013-06-10 18:01:00
2:05 PM,71.6,64.4,78,29.77,10.0,NE,6.9,-,N/A,,Overcast,50,2013-06-10 18:05:00
2:39 PM,71.6,66.2,83,29.77,2.5,ENE,6.9,-,0.00,Rain,Light Rain,60,2013-06-10 18:39:00
2:53 PM,72.0,66.0,81,29.77,10.0,North,3.5,-,0.00,,Overcast,360,2013-06-10 18:53:00
3:16 PM,71.6,64.4,78,29.77,10.0,Calm,Calm,-,N/A,,Overcast,0,2013-06-10 19:16:00
3:33 PM,73.4,64.4,73,29.77,10.0,Calm,Calm,-,N/A,,Overcast,0,2013-06-10 19:33:00
3:43 PM,73.4,66.2,78,29.77,10.0,Variable,3.5,-,N/A,,Overcast,0,2013-06-10 19:43:00
3:53 PM,73.0,64.9,76,29.76,10.0,Calm,Calm,-,N/A,,Overcast,0,2013-06-10 19:53:00
4:53 PM,73.0,64.0,73,29.77,10.0,NW,11.5,-,N/A,,Overcast,310,2013-06-10 20:53:00
5:31 PM,73.4,64.4,73,29.78,10.0,WNW,9.2,17.3,N/A,,Overcast,300,2013-06-10 21:31:00
5:53 PM,73.9,64.0,71,29.77,10.0,NNW,6.9,-,N/A,,Mostly Cloudy,330,2013-06-10 21:53:00
6:53 PM,73.9,64.0,71,29.77,10.0,NNE,4.6,-,N/A,,Mostly Cloudy,20,2013-06-10 22:53:00
7:53 PM,71.1,63.0,75,29.79,10.0,NW,11.5,-,N/A,,Overcast,310,2013-06-10 23:53:00
8:10 PM,71.6,62.6,73,29.80,10.0,NW,5.8,-,N/A,,Mostly Cloudy,320,2013-06-11 00:10:00
8:53 PM,68.0,61.0,78,29.80,10.0,NW,5.8,-,N/A,,Clear,310,2013-06-11 00:53:00
9:32 PM,66.2,60.8,83,29.81,10.0,NW,4.6,-,N/A,,Mostly Cloudy,320,2013-06-11 01:32:00
9:53 PM,66.9,60.1,79,29.81,10.0,NW,4.6,-,N/A,,Mostly Cloudy,320,2013-06-11 01:53:00
10:00 PM,66.2,60.8,83,29.82,10.0,WNW,3.5,-,N/A,,Scattered Clouds,290,2013-06-11 02:00:00
10:53 PM,64.0,60.1,87,29.83,10.0,Calm,Calm,-,N/A,,Clear,0,2013-06-11 02:53:00
11:53 PM,63.0,59.0,87,29.84,10.0,WNW,4.6,-,N/A,,Clear,290,2013-06-11 03:53:00